Weather in Bordeaux

France     44°50′40″N   0°34′41″E
temp.,
°C
wind,
m/s
gust,
m/s
humid.,
%
clouds,
%
prec.,
mm/h
press.,
hPa
HPBL,
m
11 april, sun
sun1123:00+13s2486100 0.7 1011168
02:00+12ssw1292100 2.9 1010116
05:00+11wnw51090100 3.6 1011710
08:00+10nw4794100 5.1 1012510
11:00+10nnw5878100 1.1 1015883
14:00+13nnw5646100 1.1 10172057
17:00+13nw664592 0.0 10181874
20:00+10wnw57568 0.0 1020774
12 april, mon
mon1223:00+7wnw487892 0.5 1023433
02:00+5n489275 1.1 1026559
05:00+6n477998 0.0 1027768
08:00+4n38895 0.0 1029305
11:00+9nne35585 0.0 10301028
14:00+12nne34395 0.0 10301875
17:00+13n45355 0.0 10291966
20:00+10nne46495 0.0 1030616
13 april, tue
tue1323:00+6nne36620 0.0 1031148
02:00+5ne24650 0.0 103286
05:00+3ne23720 0.0 103162
08:00+3ene24740 0.0 103193
11:00+10ene355198 0.0 1031682
14:00+14ene344123 0.0 10301569
17:00+15ne4539100 0.0 10271681
20:00+12ne3752100 0.0 1026519
14 april, wed
wed1423:00+8nne41160100 0.0 1027351
02:00+5ne4106387 0.0 1027276
05:00+3ne310688 0.0 1026242
08:00+2ne310685 0.0 1026245
11:00+9ene574571 0.0 1026700
14:00+14ne5731100 0.0 10241328
17:00+15ne572948 0.0 10221586
20:00+12nne49435 0.0 1022608
15 april, thu
thu1523:00+8ne614502 0.0 1023546
02:00+6ne513602 0.0 1024410
05:00+4ne412690 0.0 1024319
08:00+3ne311730 0.0 1024292
11:00+10ene58450 0.0 1024869
14:00+14ne57310 0.0 10221579
17:00+16ne56280 0.0 10201887
20:00+12nne48420 0.0 1020606